sat.trackr.live / text

‹ back to catalog

STARLINK-37914

NORAD 69964 · 2026-157X

PAYLOAD ACTIVE UNKNOWN

§ Identity

Operator
Country
US
Launch date
2026-07-09
Launch site
AFETR
Launch vehicle
Mass (kg)
RCS (m²)

Purposes: comms

External: N2YO · Heavens-Above · Gunter

§ Orbital elements

Epoch: 2026-09-20T04:15:04.279968Z

Period
93.85 min
Inclination
53.1565°
Eccentricity
0.0001393
Mean motion
15.34410079 rev/d
Perigee alt
461.7 km
Apogee alt
463.6 km
Semi-major
6,840.8 km
B*
3.8238e-4
RAAN
335.2124°
Arg perigee
95.0148°
Mean anomaly
265.1013°
Rev number
1,132

§ Raw data

STARLINK-379141 69964U 26157X   26263.17713287  .00012569  00000+0  38238-3 0  99992 69964  53.1565 335.2124 0001393  95.0148 265.1013 15.34410079 11323

JSON: /api/v1/satellites/69964 · /tle

For live sub-satellite position, see the globe view (requires WebGL).

§ Visibility from observer

Set your observer location to see the next 7 days of passes ≥ 10°. The values pass through the URL so the page stays shareable.

No JS? Fill the form by hand. The geolocation button needs JavaScript.